| time (UTC) | temp F | wind direction | speed MPH | gust MPH | rain 1hr in | rain 24hr in | rain mn in | humidity % | barometer mb |
| 20260905181055 | 94 | 164 | 6.0 | 6.0 | 0.00 | 0.00 | 0.00 | 52 | 1013.4 |
| 20260905180550 | 96 | 330 | 3.0 | 3.0 | 0.00 | 0.00 | 0.00 | 49 | 1013.7 |
| 20260905180046 | 95 | 156 | 8.0 | 9.0 | 0.00 | 0.00 | 0.00 | 52 | 1013.7 |
| 20260905175545 | 96 | 198 | 3.0 | 6.0 | 0.00 | 0.00 | 0.00 | 50 | 1014.0 |
| 20260905175041 | 95 | 155 | 5.0 | 8.0 | 0.00 | 0.00 | 0.00 | 52 | 1014.1 |
| 20260905174536 | 94 | 185 | 7.0 | 8.0 | 0.00 | 0.00 | 0.00 | 51 | 1013.9 |
| 20260905174031 | 95 | 149 | 2.0 | 8.0 | 0.00 | 0.00 | 0.00 | 51 | 1014.2 |
| 20260905173529 | 94 | 172 | 1.0 | 4.0 | 0.00 | 0.00 | 0.00 | 50 | 1014.0 |
| 20260905173029 | 95 | 189 | 4.0 | 7.0 | 0.00 | 0.00 | 0.00 | 50 | 1014.4 |
| 20260905172527 | 94 | 348 | 2.0 | 4.0 | 0.00 | 0.00 | 0.00 | 52 | 1014.3 |
| 20260905172023 | 94 | 159 | 4.0 | 9.0 | 0.00 | 0.00 | 0.00 | 55 | 1014.4 |
| 20260905171519 | 95 | 202 | 4.0 | 5.0 | 0.00 | 0.00 | 0.00 | 51 | 1014.6 |
| 20260905171015 | 96 | 211 | 2.0 | 5.0 | 0.00 | 0.00 | 0.00 | 51 | 1014.6 |
| 20260905170511 | 94 | 124 | 0.0 | 2.0 | 0.00 | 0.00 | 0.00 | 52 | 1014.6 |
| 20260905170006 | 95 | 143 | 0.0 | 1.0 | 0.00 | 0.00 | 0.00 | 52 | 1014.4 |
| 20260905165501 | 95 | 151 | 2.0 | 6.0 | 0.00 | 0.00 | 0.00 | 52 | 1014.6 |
| 20260905164955 | 94 | 142 | 2.0 | 4.0 | 0.00 | 0.00 | 0.00 | 52 | 1014.6 |
| 20260905164450 | 94 | 260 | 0.0 | 3.0 | 0.00 | 0.00 | 0.00 | 52 | 1014.8 |
| 20260905163945 | 93 | 255 | 0.0 | 5.0 | 0.00 | 0.00 | 0.00 | 54 | 1014.9 |
| 20260905163441 | 93 | 94 | 2.0 | 4.0 | 0.00 | 0.00 | 0.00 | 54 | 1015.0 |
| 20260905162937 | 91 | 142 | 0.0 | 4.0 | 0.00 | 0.00 | 0.00 | 57 | 1014.9 |
| 20260905162431 | 90 | 269 | 3.0 | 5.0 | 0.00 | 0.00 | 0.00 | 58 | 1014.8 |
| 20260905161927 | 91 | 232 | 2.0 | 6.0 | 0.00 | 0.00 | 0.00 | 56 | 1014.8 |
| 20260905161426 | 92 | 243 | 2.0 | 2.0 | 0.00 | 0.00 | 0.00 | 54 | 1014.9 |
| 20260905160924 | 90 | 272 | 4.0 | 4.0 | 0.00 | 0.00 | 0.00 | 55 | 1014.6 |
| 20260905160418 | 92 | 303 | 4.0 | 4.0 | 0.00 | 0.00 | 0.00 | 55 | 1014.8 |
| 20260905155912 | 92 | 48 | 0.0 | 1.0 | 0.00 | 0.00 | 0.00 | 56 | 1015.0 |
| 20260905155407 | 91 | 180 | 3.0 | 6.0 | 0.00 | 0.00 | 0.00 | 58 | 1014.8 |
| 20260905154905 | 90 | 182 | 3.0 | 5.0 | 0.00 | 0.00 | 0.00 | 61 | 1014.8 |
| 20260905154401 | 89 | 282 | 1.0 | 2.0 | 0.00 | 0.00 | 0.00 | 61 | 1014.8 |
| 20260905153856 | 90 | 279 | 3.0 | 6.0 | 0.00 | 0.00 | 0.00 | 62 | 1014.8 |
| 20260905153353 | 90 | 242 | 0.0 | 0.0 | 0.00 | 0.00 | 0.00 | 63 | 1014.9 |
| 20260905152852 | 89 | 258 | 0.0 | 5.0 | 0.00 | 0.00 | 0.00 | 63 | 1014.8 |
| 20260905152352 | 91 | 205 | 2.0 | 2.0 | 0.00 | 0.00 | 0.00 | 61 | 1014.8 |
| 20260905151847 | 89 | 225 | 3.0 | 4.0 | 0.00 | 0.00 | 0.00 | 63 | 1014.9 |
| 20260905151342 | 88 | 280 | 5.0 | 6.0 | 0.00 | 0.00 | 0.00 | 64 | 1014.8 |
| 20260905150837 | 87 | 246 | 0.0 | 5.0 | 0.00 | 0.00 | 0.00 | 65 | 1014.8 |
| 20260905150331 | 88 | 275 | 3.0 | 4.0 | 0.00 | 0.00 | 0.00 | 67 | 1014.5 |
| 20260905145828 | 87 | 176 | 2.0 | 5.0 | 0.00 | 0.00 | 0.00 | 67 | 1014.6 |
| 20260905145323 | 86 | 228 | 3.0 | 4.0 | 0.00 | 0.00 | 0.00 | 67 | 1014.6 |
| 20260905144822 | 87 | 199 | 4.0 | 5.0 | 0.00 | 0.00 | 0.00 | 66 | 1014.5 |
| 20260905144318 | 87 | 283 | 5.0 | 6.0 | 0.00 | 0.00 | 0.00 | 67 | 1014.7 |
| 20260905143816 | 87 | 189 | 3.0 | 4.0 | 0.00 | 0.00 | 0.00 | 67 | 1014.7 |
| 20260905143311 | 86 | 246 | 2.0 | 4.0 | 0.00 | 0.00 | 0.00 | 69 | 1014.5 |
| 20260905142810 | 86 | 205 | 2.0 | 5.0 | 0.00 | 0.00 | 0.00 | 68 | 1014.5 |
| 20260905142306 | 85 | 223 | 1.0 | 4.0 | 0.00 | 0.00 | 0.00 | 69 | 1014.5 |
| 20260905141759 | 84 | 266 | 2.0 | 6.0 | 0.00 | 0.00 | 0.00 | 70 | 1014.4 |
| 20260905141255 | 85 | 263 | 2.0 | 3.0 | 0.00 | 0.00 | 0.00 | 70 | 1014.7 |
| 20260905140750 | 84 | 235 | 2.0 | 3.0 | 0.00 | 0.00 | 0.00 | 71 | 1014.6 |
| 20260905140245 | 84 | 224 | 2.0 | 3.0 | 0.00 | 0.00 | 0.00 | 71 | 1014.5 |
| 20260905135744 | 85 | 170 | 0.0 | 2.0 | 0.00 | 0.00 | 0.00 | 71 | 1014.6 |
| 20260905135240 | 85 | 166 | 2.0 | 4.0 | 0.00 | 0.00 | 0.00 | 70 | 1014.7 |
| 20260905134739 | 85 | 142 | 2.0 | 2.0 | 0.00 | 0.00 | 0.00 | 70 | 1014.5 |
| 20260905134238 | 84 | 117 | 0.0 | 2.0 | 0.00 | 0.00 | 0.00 | 70 | 1014.6 |
| 20260905133733 | 83 | 147 | 0.0 | 3.0 | 0.00 | 0.00 | 0.00 | 72 | 1014.6 |
| 20260905133228 | 83 | 104 | 0.0 | 3.0 | 0.00 | 0.00 | 0.00 | 73 | 1014.6 |
| 20260905132727 | 82 | 151 | 4.0 | 4.0 | 0.00 | 0.00 | 0.00 | 73 | 1014.4 |
| 20260905132223 | 82 | 149 | 3.0 | 4.0 | 0.00 | 0.00 | 0.00 | 73 | 1014.4 |
| 20260905131718 | 82 | 92 | 1.0 | 3.0 | 0.00 | 0.00 | 0.00 | 73 | 1014.1 |
| 20260905131214 | 81 | 104 | 1.0 | 4.0 | 0.00 | 0.00 | 0.00 | 75 | 1014.1 |
| 20260905130714 | 80 | 116 | 3.0 | 4.0 | 0.00 | 0.00 | 0.00 | 77 | 1013.9 |
| 20260905130213 | 79 | 153 | 3.0 | 4.0 | 0.00 | 0.00 | 0.00 | 78 | 1013.7 |
| 20260905125708 | 79 | 148 | 3.0 | 4.0 | 0.00 | 0.00 | 0.00 | 79 | 1013.9 |
| 20260905125203 | 78 | 141 | 2.0 | 4.0 | 0.00 | 0.00 | 0.00 | 81 | 1013.7 |
| 20260905124659 | 78 | 141 | 0.0 | 2.0 | 0.00 | 0.00 | 0.00 | 80 | 1014.2 |
| 20260905124155 | 78 | 86 | 2.0 | 3.0 | 0.00 | 0.00 | 0.00 | 80 | 1014.2 |
| 20260905123650 | 78 | 83 | 3.0 | 3.0 | 0.00 | 0.00 | 0.00 | 79 | 1014.1 |
| 20260905123148 | 78 | 107 | 2.0 | 3.0 | 0.00 | 0.00 | 0.00 | 79 | 1013.9 |
| 20260905122647 | 78 | 107 | 1.0 | 2.0 | 0.00 | 0.00 | 0.00 | 79 | 1014.1 |
| 20260905122142 | 78 | 106 | 0.0 | 2.0 | 0.00 | 0.00 | 0.00 | 79 | 1014.1 |
| 20260905121636 | 77 | 113 | 0.0 | 1.0 | 0.00 | 0.00 | 0.00 | 80 | 1014.2 |
| 20260905121132 | 78 | 98 | 0.0 | 0.0 | 0.00 | 0.00 | 0.00 | 79 | 1014.0 |
| 20260905120631 | 78 | 69 | 1.0 | 1.0 | 0.00 | 0.00 | 0.00 | 79 | 1013.9 |
| 20260905120126 | 77 | 98 | 0.0 | 1.0 | 0.00 | 0.00 | 0.00 | 80 | 1013.7 |
| 20260905115625 | 77 | 104 | 0.0 | 0.0 | 0.00 | 0.00 | 0.00 | 80 | 1013.9 |
| 20260905115120 | 77 | 157 | 1.0 | 2.0 | 0.00 | 0.00 | 0.00 | 80 | 1013.6 |
| 20260905114620 | 77 | 144 | 1.0 | 2.0 | 0.00 | 0.00 | 0.00 | 80 | 1013.9 |
| 20260905114119 | 77 | 135 | 2.0 | 2.0 | 0.00 | 0.00 | 0.00 | 80 | 1013.5 |
| 20260905113614 | 78 | 156 | 2.0 | 2.0 | 0.00 | 0.00 | 0.00 | 78 | 1013.7 |
| 20260905113109 | 78 | 115 | 0.0 | 2.0 | 0.00 | 0.00 | 0.00 | 79 | 1013.9 |
| 20260905112603 | 78 | 160 | 0.0 | 2.0 | 0.00 | 0.00 | 0.00 | 78 | 1013.7 |
| 20260905112100 | 78 | 126 | 0.0 | 1.0 | 0.00 | 0.00 | 0.00 | 78 | 1013.9 |
| 20260905111554 | 78 | 107 | 1.0 | 2.0 | 0.00 | 0.00 | 0.00 | 78 | 1014.0 |
| 20260905111053 | 78 | 158 | 0.0 | 2.0 | 0.00 | 0.00 | 0.00 | 79 | 1013.6 |
| 20260905110552 | 78 | 144 | 1.0 | 2.0 | 0.00 | 0.00 | 0.00 | 78 | 1013.7 |
| 20260905110048 | 78 | 135 | 0.0 | 2.0 | 0.00 | 0.00 | 0.00 | 78 | 1013.7 |
| 20260905105542 | 78 | 142 | 0.0 | 1.0 | 0.00 | 0.00 | 0.00 | 78 | 1013.5 |
| 20260905105041 | 78 | 126 | 1.0 | 2.0 | 0.00 | 0.00 | 0.00 | 78 | 1013.6 |
| 20260905104537 | 79 | 116 | 0.0 | 1.0 | 0.00 | 0.00 | 0.00 | 77 | 1013.5 |
| 20260905104037 | 79 | 213 | 1.0 | 2.0 | 0.00 | 0.00 | 0.00 | 77 | 1013.4 |
| 20260905103532 | 79 | 358 | 0.0 | 0.0 | 0.00 | 0.00 | 0.00 | 76 | 1013.5 |
| 20260905103028 | 79 | 137 | 0.0 | 1.0 | 0.00 | 0.00 | 0.00 | 76 | 1013.4 |
| 20260905102524 | 79 | 164 | 0.0 | 2.0 | 0.00 | 0.00 | 0.00 | 76 | 1013.5 |
| 20260905102020 | 79 | 185 | 0.0 | 2.0 | 0.00 | 0.00 | 0.00 | 76 | 1013.5 |
| 20260905101518 | 79 | 160 | 1.0 | 2.0 | 0.00 | 0.00 | 0.00 | 75 | 1013.4 |
| 20260905101017 | 79 | 189 | 0.0 | 1.0 | 0.00 | 0.00 | 0.00 | 75 | 1013.6 |
| 20260905100514 | 80 | 231 | 1.0 | 2.0 | 0.00 | 0.00 | 0.00 | 75 | 1013.6 |
| 20260905100013 | 80 | 180 | 0.0 | 2.0 | 0.00 | 0.00 | 0.00 | 75 | 1013.4 |
| 20260905095508 | 80 | 147 | 0.0 | 2.0 | 0.00 | 0.00 | 0.00 | 75 | 1013.4 |
| 20260905095003 | 79 | 172 | 1.0 | 2.0 | 0.00 | 0.00 | 0.00 | 75 | 1013.4 |
| 20260905094458 | 79 | 160 | 0.0 | 1.0 | 0.00 | 0.00 | 0.00 | 76 | 1013.4 |
| 20260905093956 | 79 | 142 | 0.0 | 0.0 | 0.00 | 0.00 | 0.00 | 76 | 1013.3 |
| 20260905093452 | 79 | 129 | 0.0 | 0.0 | 0.00 | 0.00 | 0.00 | 75 | 1013.2 |
| 20260905092948 | 80 | 145 | 1.0 | 1.0 | 0.00 | 0.00 | 0.00 | 75 | 1013.5 |
| 20260905092443 | 80 | 145 | 1.0 | 2.0 | 0.00 | 0.00 | 0.00 | 75 | 1013.2 |
| 20260905091938 | 80 | 154 | 1.0 | 2.0 | 0.00 | 0.00 | 0.00 | 75 | 1013.2 |
| 20260905091432 | 80 | 142 | 0.0 | 2.0 | 0.00 | 0.00 | 0.00 | 74 | 1013.2 |
| 20260905090932 | 80 | 153 | 2.0 | 2.0 | 0.00 | 0.00 | 0.00 | 74 | 1013.1 |
| 20260905090427 | 80 | 150 | 1.0 | 2.0 | 0.00 | 0.00 | 0.00 | 74 | 1013.1 |
| 20260905085926 | 80 | 161 | 2.0 | 2.0 | 0.00 | 0.00 | 0.00 | 74 | 1013.1 |
| 20260905085426 | 80 | 158 | 2.0 | 2.0 | 0.00 | 0.00 | 0.00 | 73 | 1013.0 |
| 20260905084922 | 81 | 131 | 0.0 | 3.0 | 0.00 | 0.00 | 0.00 | 73 | 1013.2 |
| 20260905084421 | 81 | 126 | 0.0 | 3.0 | 0.00 | 0.00 | 0.00 | 73 | 1012.8 |
| 20260905083916 | 81 | 132 | 2.0 | 4.0 | 0.00 | 0.00 | 0.00 | 73 | 1013.0 |
| 20260905083412 | 81 | 134 | 2.0 | 3.0 | 0.00 | 0.00 | 0.00 | 73 | 1013.0 |
| 20260905082907 | 81 | 158 | 2.0 | 3.0 | 0.00 | 0.00 | 0.00 | 73 | 1013.0 |
| 20260905082403 | 81 | 162 | 2.0 | 2.0 | 0.00 | 0.00 | 0.00 | 73 | 1012.9 |
| 20260905081859 | 82 | 168 | 2.0 | 4.0 | 0.00 | 0.00 | 0.00 | 72 | 1012.9 |
| 20260905081359 | 81 | 171 | 2.0 | 2.0 | 0.00 | 0.00 | 0.00 | 73 | 1012.8 |
| 20260905080857 | 82 | 161 | 2.0 | 3.0 | 0.00 | 0.00 | 0.00 | 72 | 1012.8 |
| 20260905080352 | 82 | 182 | 2.0 | 3.0 | 0.00 | 0.00 | 0.00 | 71 | 1012.9 |
| 20260905075851 | 82 | 208 | 1.0 | 1.0 | 0.00 | 0.00 | 0.00 | 71 | 1012.9 |
| 20260905075351 | 82 | 217 | 0.0 | 2.0 | 0.00 | 0.00 | 0.00 | 71 | 1012.9 |
| 20260905074850 | 82 | 175 | 0.0 | 2.0 | 0.00 | 0.00 | 0.00 | 70 | 1012.9 |
| 20260905074346 | 82 | 211 | 2.0 | 4.0 | 0.00 | 0.00 | 0.00 | 71 | 1012.9 |
| 20260905073841 | 82 | 205 | 0.0 | 2.0 | 0.00 | 0.00 | 0.00 | 71 | 1013.0 |
| 20260905073336 | 82 | 164 | 1.0 | 3.0 | 0.00 | 0.00 | 0.00 | 71 | 1013.2 |
| 20260905072831 | 82 | 169 | 2.0 | 3.0 | 0.00 | 0.00 | 0.00 | 70 | 1013.3 |
| 20260905072326 | 82 | 163 | 2.0 | 2.0 | 0.00 | 0.00 | 0.00 | 70 | 1013.3 |
| 20260905071823 | 82 | 162 | 2.0 | 3.0 | 0.00 | 0.00 | 0.00 | 70 | 1013.4 |
| 20260905071319 | 82 | 161 | 0.0 | 3.0 | 0.00 | 0.00 | 0.00 | 70 | 1013.7 |
| 20260905070813 | 83 | 160 | 2.0 | 2.0 | 0.00 | 0.00 | 0.00 | 70 | 1013.5 |
| 20260905070310 | 83 | 180 | 1.0 | 3.0 | 0.00 | 0.00 | 0.00 | 69 | 1013.6 |
| 20260905065809 | 83 | 166 | 2.0 | 2.0 | 0.00 | 0.00 | 0.00 | 68 | 1013.6 |
| 20260905065306 | 83 | 180 | 2.0 | 2.0 | 0.00 | 0.00 | 0.00 | 68 | 1013.5 |
| 20260905064758 | 83 | 188 | 3.0 | 4.0 | 0.00 | 0.00 | 0.00 | 68 | 1013.7 |
| 20260905064253 | 83 | 183 | 1.0 | 3.0 | 0.00 | 0.00 | 0.00 | 68 | 1013.6 |
| 20260905063751 | 83 | 179 | 2.0 | 3.0 | 0.00 | 0.00 | 0.00 | 69 | 1013.5 |
| 20260905063248 | 83 | 166 | 2.0 | 3.0 | 0.00 | 0.00 | 0.00 | 68 | 1013.6 |
| 20260905062743 | 83 | 173 | 2.0 | 2.0 | 0.00 | 0.00 | 0.00 | 68 | 1013.6 |
| 20260905062243 | 84 | 178 | 2.0 | 4.0 | 0.00 | 0.00 | 0.00 | 68 | 1013.6 |
| 20260905061738 | 84 | 164 | 2.0 | 6.0 | 0.00 | 0.00 | 0.00 | 67 | 1013.5 |
| 20260905061232 | 84 | 167 | 2.0 | 5.0 | 0.00 | 0.00 | 0.00 | 67 | 1013.3 |
| 20260905060726 | 84 | 154 | 2.0 | 5.0 | 0.00 | 0.00 | 0.00 | 66 | 1013.6 |
| 20260905060224 | 84 | 154 | 1.0 | 6.0 | 0.00 | 0.00 | 0.00 | 66 | 1013.3 |
| 20260905055721 | 84 | 189 | 4.0 | 6.0 | 0.00 | 0.00 | 0.00 | 66 | 1013.5 |
| 20260905055217 | 84 | 160 | 4.0 | 4.0 | 0.00 | 0.00 | 0.00 | 66 | 1013.3 |
| 20260905054712 | 85 | 210 | 3.0 | 6.0 | 0.00 | 0.00 | 0.00 | 65 | 1013.3 |
| 20260905054209 | 84 | 188 | 4.0 | 6.0 | 0.00 | 0.00 | 0.00 | 66 | 1013.2 |
| 20260905053708 | 85 | 162 | 3.0 | 6.0 | 0.00 | 0.00 | 0.00 | 66 | 1012.9 |
| 20260905053203 | 85 | 175 | 5.0 | 6.0 | 0.00 | 0.00 | 0.00 | 65 | 1013.0 |
| 20260905052702 | 85 | 179 | 2.0 | 5.0 | 0.00 | 0.00 | 0.00 | 65 | 1013.1 |
| 20260905052157 | 85 | 189 | 5.0 | 5.0 | 0.00 | 0.00 | 0.00 | 65 | 1013.1 |
| 20260905051652 | 85 | 201 | 7.0 | 7.0 | 0.00 | 0.00 | 0.00 | 64 | 1013.0 |
| 20260905051149 | 85 | 176 | 3.0 | 4.0 | 0.00 | 0.00 | 0.00 | 64 | 1013.1 |
| 20260905050645 | 85 | 184 | 2.0 | 4.0 | 0.00 | 0.00 | 0.00 | 64 | 1013.0 |
| 20260905050142 | 85 | 203 | 3.0 | 6.0 | 0.00 | 0.00 | 0.00 | 65 | 1012.9 |
| 20260905045641 | 85 | 185 | 4.0 | 5.0 | 0.00 | 0.00 | 0.00 | 64 | 1013.0 |
| 20260905045136 | 86 | 176 | 3.0 | 6.0 | 0.00 | 0.00 | 0.00 | 64 | 1013.1 |
| 20260905044631 | 86 | 177 | 5.0 | 6.0 | 0.00 | 0.00 | 0.00 | 64 | 1013.2 |
| 20260905044126 | 86 | 208 | 2.0 | 5.0 | 0.00 | 0.00 | 0.00 | 64 | 1013.0 |
| 20260905043625 | 86 | 169 | 5.0 | 6.0 | 0.00 | 0.00 | 0.00 | 64 | 1013.0 |
| 20260905043120 | 86 | 180 | 5.0 | 6.0 | 0.00 | 0.00 | 0.00 | 64 | 1013.0 |
| 20260905042619 | 86 | 179 | 2.0 | 6.0 | 0.00 | 0.00 | 0.00 | 64 | 1013.0 |
| 20260905042114 | 86 | 170 | 4.0 | 5.0 | 0.00 | 0.00 | 0.00 | 64 | 1013.2 |
| 20260905041609 | 86 | 171 | 4.0 | 5.0 | 0.00 | 0.00 | 0.00 | 64 | 1013.1 |
| 20260905041104 | 86 | 157 | 5.0 | 9.0 | 0.00 | 0.00 | 0.00 | 63 | 1013.2 |
| 20260905040559 | 87 | 154 | 3.0 | 6.0 | 0.00 | 0.00 | 0.00 | 63 | 1013.1 |
| 20260905040057 | 87 | 165 | 5.0 | 7.0 | 0.00 | 0.00 | 0.00 | 62 | 1013.2 |
| 20260905035553 | 87 | 161 | 6.0 | 9.0 | 0.00 | 0.00 | 0.00 | 62 | 1013.2 |
| 20260905035050 | 87 | 166 | 7.0 | 8.0 | 0.00 | 0.00 | 0.00 | 61 | 1013.2 |
| 20260905034545 | 87 | 188 | 4.0 | 6.0 | 0.00 | 0.00 | 0.00 | 62 | 1013.2 |
| 20260905034044 | 87 | 159 | 4.0 | 6.0 | 0.00 | 0.00 | 0.00 | 61 | 1013.1 |
| 20260905033538 | 87 | 130 | 2.0 | 6.0 | 0.00 | 0.00 | 0.00 | 61 | 1013.3 |
| 20260905033034 | 87 | 158 | 6.0 | 7.0 | 0.00 | 0.00 | 0.00 | 60 | 1013.1 |
| 20260905032529 | 87 | 158 | 5.0 | 6.0 | 0.00 | 0.00 | 0.00 | 61 | 1013.3 |
| 20260905032024 | 87 | 145 | 4.0 | 5.0 | 0.00 | 0.00 | 0.00 | 61 | 1013.4 |
| 20260905031520 | 87 | 132 | 3.0 | 6.0 | 0.00 | 0.00 | 0.00 | 60 | 1013.2 |
| 20260905031019 | 88 | 141 | 4.0 | 6.0 | 0.00 | 0.00 | 0.00 | 60 | 1013.2 |
| 20260905030515 | 88 | 146 | 4.0 | 6.0 | 0.00 | 0.00 | 0.00 | 60 | 1013.0 |
| 20260905030014 | 88 | 149 | 3.0 | 5.0 | 0.00 | 0.00 | 0.00 | 59 | 1012.9 |
| 20260905025510 | 88 | 126 | 3.0 | 6.0 | 0.00 | 0.00 | 0.00 | 59 | 1013.1 |
| 20260905025006 | 88 | 145 | 4.0 | 6.0 | 0.00 | 0.00 | 0.00 | 59 | 1012.7 |
| 20260905024502 | 89 | 138 | 3.0 | 6.0 | 0.00 | 0.00 | 0.00 | 58 | 1012.8 |
| 20260905023956 | 89 | 150 | 6.0 | 6.0 | 0.00 | 0.00 | 0.00 | 57 | 1012.8 |
| 20260905023451 | 89 | 133 | 3.0 | 7.0 | 0.00 | 0.00 | 0.00 | 57 | 1012.8 |
| 20260905022950 | 89 | 138 | 4.0 | 5.0 | 0.00 | 0.00 | 0.00 | 56 | 1012.7 |
| 20260905022446 | 89 | 126 | 5.0 | 6.0 | 0.00 | 0.00 | 0.00 | 56 | 1012.5 |
| 20260905021941 | 89 | 142 | 4.0 | 5.0 | 0.00 | 0.00 | 0.00 | 55 | 1012.4 |
| 20260905021440 | 89 | 144 | 3.0 | 5.0 | 0.00 | 0.00 | 0.00 | 55 | 1012.5 |
| 20260905020936 | 90 | 131 | 4.0 | 5.0 | 0.00 | 0.00 | 0.00 | 55 | 1012.5 |
| 20260905020435 | 90 | 120 | 2.0 | 4.0 | 0.00 | 0.00 | 0.00 | 54 | 1012.4 |
| 20260905015930 | 90 | 127 | 3.0 | 4.0 | 0.00 | 0.00 | 0.00 | 54 | 1012.1 |
| 20260905015428 | 90 | 134 | 2.0 | 6.0 | 0.00 | 0.00 | 0.00 | 53 | 1012.0 |
| 20260905014927 | 90 | 141 | 4.0 | 4.0 | 0.00 | 0.00 | 0.00 | 53 | 1012.0 |
| 20260905014423 | 90 | 152 | 4.0 | 5.0 | 0.00 | 0.00 | 0.00 | 53 | 1012.1 |
| 20260905013918 | 91 | 143 | 3.0 | 5.0 | 0.00 | 0.00 | 0.00 | 53 | 1012.1 |
| 20260905013415 | 91 | 91 | 2.0 | 3.0 | 0.00 | 0.00 | 0.00 | 53 | 1011.8 |
| 20260905012910 | 91 | 143 | 4.0 | 4.0 | 0.00 | 0.00 | 0.00 | 53 | 1011.9 |
| 20260905012405 | 91 | 146 | 3.0 | 6.0 | 0.00 | 0.00 | 0.00 | 53 | 1011.9 |
| 20260905011902 | 91 | 140 | 5.0 | 5.0 | 0.00 | 0.00 | 0.00 | 52 | 1011.7 |
| 20260905011357 | 91 | 145 | 3.0 | 6.0 | 0.00 | 0.00 | 0.00 | 52 | 1011.8 |
| 20260905010852 | 92 | 140 | 4.0 | 8.0 | 0.00 | 0.00 | 0.00 | 52 | 1011.5 |
| 20260905010347 | 92 | 150 | 4.0 | 7.0 | 0.00 | 0.00 | 0.00 | 51 | 1011.4 |
| 20260905005843 | 92 | 150 | 4.0 | 7.0 | 0.00 | 0.00 | 0.00 | 51 | 1011.8 |
| 20260905005339 | 93 | 142 | 4.0 | 7.0 | 0.00 | 0.00 | 0.00 | 51 | 1011.7 |
| 20260905004834 | 93 | 120 | 3.0 | 9.0 | 0.00 | 0.00 | 0.00 | 50 | 1011.5 |
| 20260905004328 | 93 | 158 | 7.0 | 11.0 | 0.00 | 0.00 | 0.00 | 50 | 1011.5 |
| 20260905003824 | 93 | 134 | 4.0 | 9.0 | 0.00 | 0.00 | 0.00 | 50 | 1011.3 |
| 20260905003320 | 93 | 158 | 5.0 | 10.0 | 0.00 | 0.00 | 0.00 | 50 | 1011.4 |
| 20260905002815 | 94 | 153 | 8.0 | 11.0 | 0.00 | 0.00 | 0.00 | 49 | 1011.5 |
| 20260905002314 | 94 | 138 | 6.0 | 12.0 | 0.00 | 0.00 | 0.00 | 49 | 1011.3 |
| 20260905001810 | 94 | 122 | 6.0 | 12.0 | 0.00 | 0.00 | 0.00 | 49 | 1011.3 |
| 20260905001309 | 95 | 136 | 8.0 | 12.0 | 0.00 | 0.00 | 0.00 | 47 | 1011.4 |
| 20260905000804 | 95 | 163 | 7.0 | 9.0 | 0.00 | 0.00 | 0.00 | 47 | 1011.2 |
| 20260905000255 | 95 | 152 | 7.0 | 9.0 | 0.00 | 0.00 | 0.00 | 46 | 1011.2 |
| 20260904235750 | 95 | 128 | 4.0 | 11.0 | 0.00 | 0.00 | 0.00 | 46 | 1011.2 |
| 20260904235249 | 96 | 147 | 4.0 | 10.0 | 0.00 | 0.00 | 0.00 | 45 | 1011.2 |
| 20260904234744 | 96 | 163 | 7.0 | 10.0 | 0.00 | 0.00 | 0.00 | 46 | 1011.2 |
| 20260904234239 | 96 | 131 | 4.0 | 7.0 | 0.00 | 0.00 | 0.00 | 45 | 1011.3 |
| 20260904233735 | 96 | 142 | 7.0 | 11.0 | 0.00 | 0.00 | 0.00 | 44 | 1011.1 |
| 20260904233231 | 96 | 141 | 8.0 | 12.0 | 0.00 | 0.00 | 0.00 | 45 | 1011.3 |
| 20260904232728 | 97 | 143 | 4.0 | 9.0 | 0.00 | 0.00 | 0.00 | 44 | 1011.2 |
| 20260904232224 | 97 | 146 | 9.0 | 13.0 | 0.00 | 0.00 | 0.00 | 44 | 1011.2 |
| 20260904231720 | 97 | 123 | 3.0 | 7.0 | 0.00 | 0.00 | 0.00 | 44 | 1011.0 |
| 20260904231215 | 97 | 151 | 9.0 | 11.0 | 0.00 | 0.00 | 0.00 | 45 | 1011.0 |
| 20260904230714 | 97 | 153 | 5.0 | 10.0 | 0.00 | 0.00 | 0.00 | 44 | 1011.1 |
| 20260904230209 | 98 | 105 | 4.0 | 9.0 | 0.00 | 0.00 | 0.00 | 44 | 1011.1 |
| 20260904225709 | 97 | 154 | 6.0 | 11.0 | 0.00 | 0.00 | 0.00 | 44 | 1011.2 |
| 20260904225203 | 98 | 139 | 10.0 | 11.0 | 0.00 | 0.00 | 0.00 | 43 | 1011.2 |
| 20260904224702 | 97 | 155 | 7.0 | 11.0 | 0.00 | 0.00 | 0.00 | 43 | 1011.3 |
| 20260904224157 | 97 | 185 | 8.0 | 11.0 | 0.00 | 0.00 | 0.00 | 44 | 1011.3 |
| 20260904223656 | 98 | 104 | 4.0 | 11.0 | 0.00 | 0.00 | 0.00 | 42 | 1011.3 |
| 20260904223157 | 98 | 153 | 4.0 | 8.0 | 0.00 | 0.00 | 0.00 | 43 | 1011.1 |
| 20260904222652 | 98 | 134 | 5.0 | 11.0 | 0.00 | 0.00 | 0.00 | 43 | 1011.4 |
| 20260904222148 | 98 | 105 | 3.0 | 6.0 | 0.00 | 0.00 | 0.00 | 44 | 1011.2 |
| 20260904221647 | 98 | 149 | 6.0 | 8.0 | 0.00 | 0.00 | 0.00 | 44 | 1011.2 |
| 20260904221143 | 97 | 93 | 5.0 | 14.0 | 0.00 | 0.00 | 0.00 | 45 | 1011.4 |
| 20260904220637 | 96 | 146 | 10.0 | 10.0 | 0.00 | 0.00 | 0.00 | 45 | 1011.4 |
| 20260904220132 | 97 | 108 | 6.0 | 13.0 | 0.00 | 0.00 | 0.00 | 44 | 1011.4 |
| 20260904215627 | 98 | 78 | 1.0 | 6.0 | 0.00 | 0.00 | 0.00 | 46 | 1011.4 |
| 20260904215123 | 98 | 118 | 5.0 | 10.0 | 0.00 | 0.00 | 0.00 | 44 | 1011.4 |
| 20260904214623 | 97 | 128 | 5.0 | 11.0 | 0.00 | 0.00 | 0.00 | 46 | 1011.7 |
| 20260904214119 | 96 | 137 | 7.0 | 10.0 | 0.00 | 0.00 | 0.00 | 47 | 1011.8 |
| 20260904213617 | 97 | 122 | 7.0 | 10.0 | 0.00 | 0.00 | 0.00 | 46 | 1011.7 |
| 20260904213114 | 97 | 117 | 8.0 | 11.0 | 0.00 | 0.00 | 0.00 | 46 | 1011.7 |
| 20260904212613 | 95 | 143 | 6.0 | 13.0 | 0.00 | 0.00 | 0.00 | 48 | 1011.7 |
| 20260904212109 | 95 | 144 | 5.0 | 5.0 | 0.00 | 0.00 | 0.00 | 48 | 1011.7 |
| 20260904211608 | 96 | 142 | 7.0 | 10.0 | 0.00 | 0.00 | 0.00 | 48 | 1011.9 |
| 20260904211103 | 97 | 161 | 10.0 | 14.0 | 0.00 | 0.00 | 0.00 | 48 | 1011.9 |
| 20260904210603 | 98 | 148 | 14.0 | 14.0 | 0.00 | 0.00 | 0.00 | 46 | 1011.7 |
| 20260904210059 | 98 | 135 | 6.0 | 11.0 | 0.00 | 0.00 | 0.00 | 47 | 1012.0 |
| 20260904205554 | 97 | 149 | 9.0 | 12.0 | 0.00 | 0.00 | 0.00 | 48 | 1011.9 |
| 20260904205051 | 98 | 165 | 3.0 | 5.0 | 0.00 | 0.00 | 0.00 | 48 | 1012.2 |
| 20260904204546 | 98 | 131 | 6.0 | 9.0 | 0.00 | 0.00 | 0.00 | 48 | 1011.9 |
| 20260904204042 | 98 | 123 | 6.0 | 10.0 | 0.00 | 0.00 | 0.00 | 47 | 1012.2 |
| 20260904203538 | 96 | 214 | 0.0 | 10.0 | 0.00 | 0.00 | 0.00 | 49 | 1012.1 |
| 20260904203034 | 96 | 192 | 5.0 | 11.0 | 0.00 | 0.00 | 0.00 | 48 | 1012.3 |
| 20260904202530 | 96 | 178 | 4.0 | 5.0 | 0.00 | 0.00 | 0.00 | 49 | 1012.4 |
| 20260904202026 | 96 | 125 | 5.0 | 14.0 | 0.00 | 0.00 | 0.00 | 49 | 1012.4 |
| 20260904201521 | 96 | 178 | 4.0 | 5.0 | 0.00 | 0.00 | 0.00 | 50 | 1012.3 |
| 20260904201016 | 96 | 184 | 6.0 | 13.0 | 0.00 | 0.00 | 0.00 | 48 | 1012.4 |
| 20260904200514 | 95 | 150 | 4.0 | 9.0 | 0.00 | 0.00 | 0.00 | 51 | 1012.6 |
| 20260904200010 | 97 | 152 | 6.0 | 14.0 | 0.00 | 0.00 | 0.00 | 50 | 1012.7 |
| 20260904195509 | 96 | 167 | 9.0 | 10.0 | 0.00 | 0.00 | 0.00 | 51 | 1012.6 |
| 20260904195008 | 95 | 181 | 3.0 | 12.0 | 0.00 | 0.00 | 0.00 | 51 | 1012.7 |
| 20260904194503 | 95 | 171 | 2.0 | 6.0 | 0.00 | 0.00 | 0.00 | 52 | 1012.8 |
| 20260904193958 | 95 | 166 | 3.0 | 9.0 | 0.00 | 0.00 | 0.00 | 51 | 1013.0 |
| 20260904193453 | 96 | 180 | 4.0 | 9.0 | 0.00 | 0.00 | 0.00 | 49 | 1013.0 |
| 20260904192949 | 96 | 152 | 5.0 | 9.0 | 0.00 | 0.00 | 0.00 | 50 | 1013.1 |
| 20260904192449 | 96 | 167 | 8.0 | 9.0 | 0.00 | 0.00 | 0.00 | 49 | 1013.1 |
| 20260904191945 | 95 | 212 | 3.0 | 10.0 | 0.00 | 0.00 | 0.00 | 50 | 1013.0 |
| 20260904191441 | 96 | 173 | 5.0 | 9.0 | 0.00 | 0.00 | 0.00 | 51 | 1013.3 |
| 20260904190938 | 95 | 158 | 2.0 | 9.0 | 0.00 | 0.00 | 0.00 | 50 | 1013.2 |
| 20260904190432 | 95 | 153 | 9.0 | 17.0 | 0.00 | 0.00 | 0.00 | 52 | 1013.3 |
| 20260904185928 | 94 | 189 | 5.0 | 10.0 | 0.00 | 0.00 | 0.00 | 52 | 1013.3 |
| 20260904185424 | 95 | 160 | 4.0 | 9.0 | 0.00 | 0.00 | 0.00 | 50 | 1013.4 |
| 20260904184924 | 94 | 151 | 10.0 | 15.0 | 0.00 | 0.00 | 0.00 | 52 | 1013.4 |
| 20260904184419 | 94 | 136 | 8.0 | 16.0 | 0.00 | 0.00 | 0.00 | 53 | 1013.3 |
| 20260904183914 | 95 | 170 | 7.0 | 10.0 | 0.00 | 0.00 | 0.00 | 50 | 1013.6 |
| 20260904183410 | 94 | 154 | 8.0 | 8.0 | 0.00 | 0.00 | 0.00 | 51 | 1013.7 |
| 20260904182906 | 94 | 145 | 4.0 | 10.0 | 0.00 | 0.00 | 0.00 | 52 | 1013.6 |
| 20260904182406 | 94 | 175 | 5.0 | 11.0 | 0.00 | 0.00 | 0.00 | 51 | 1013.7 |
| 20260904181900 | 94 | 170 | 5.0 | 11.0 | 0.00 | 0.00 | 0.00 | 50 | 1014.1 |
| 20260904181355 | 94 | 171 | 1.0 | 7.0 | 0.00 | 0.00 | 0.00 | 53 | 1013.9 |